Погода в Дидиме

Турция     37°21′18″N   27°16′37″E
темп.,
°C
ветер,
м/с
пор.,
м/с
влажн.,
%
обл.,
%
осадки,
мм/ч
давл.,
гПа
погр.,
м
25 января, пн
пн2500:00+16ююв11137728 0.8 10161127
03:00+16ю14167548 2.4 10141318
06:00+17ю141770100 0.4 10141572
09:00+17ю151864100 1.7 10131851
12:00+18ююз151865100 0.8 10131579
15:00+17юз12147173 2.1 10121420
18:00+17юз1012720 1.4 10131280
21:00+17юз9116826 1.8 10151433
26 января, вт
вт2600:00+17ююз7968100 0.0 10161139
03:00+17ююз6874100 0.3 10151025
06:00+16ююз5675100 0.6 1014859
09:00+17ю81176100 0.9 10141140
12:00+17ю111373100 0.1 10141337
15:00+17ю121570100 0.3 10111571
18:00+17ю131672100 1.1 10101623
21:00+17ю151871100 2.3 10081489
27 января, ср
ср2700:00+17ююв172265100 0.3 10051785
03:00+16ююв192568100 1.5 10012120
06:00+15юз161978100 6.3 9991510
09:00+15юз16196697 8.4 10002007
12:00+13зюз14156367 0.3 10021979
15:00+12зюз13156374 1.1 10021885
18:00+11зюз14156269 1.6 10032043
21:00+10з11146563 3.4 10061882
28 января, чт
чт2800:00+10зсз10116622 1.1 10081604
03:00+10зсз996349 2.9 10091520
06:00+10зсз12136475 2.2 10081943
09:00+9зсз10116280 4.6 10101734
12:00+9зсз10116483 2.3 10111583
15:00+10зсз11126491 4.4 10111807
18:00+9сз11126792 1.9 10111592
21:00+9ссз9106696 4.7 10131508
29 января, пт
пт2900:00+9зсз101267100 2.0 10151544
03:00+7с467476 2.3 1016626
06:00+7св33650 0.0 1016441
09:00+8в54670 0.0 1017377
12:00+9в436337 0.0 1017378
15:00+11вюв335249 0.0 1016525
18:00+12юв335072 0.0 1016820
21:00+12юв455536 0.0 1016588